FLX845 TNCC-SKCG

Flight info

Callsign FLX845
Flight time 1h 2m
Altitude 36000
Route DATOR1K DATOR UL220 BAQ BAQ4B
Aircraft A339/H-SADE1E2E3GHIJ3J5M1P2RWXY/LB2D1

Departure

Time 2026-05-09 01:09
Airport Hato International Airport (TNCC)

Arrival

Time 2026-05-09 02:11
Airport Rafael Nuñez International Airport (SKCG)
Time Latitude Longitude Altitude Speed Heading
2026-05-09 00:49 12.18552 -68.95628 52 ft 0 kts 191°
2026-05-09 00:58 12.18553 -68.95627 52 ft 0 kts 191°
2026-05-09 00:59 12.18566 -68.95624 52 ft 2 kts 191°
2026-05-09 00:59 12.18581 -68.95622 52 ft 2 kts 191°
2026-05-09 00:59 12.18595 -68.95619 51 ft 2 kts 191°
2026-05-09 00:59 12.18610 -68.95616 51 ft 2 kts 200°
2026-05-09 01:00 12.18623 -68.95608 51 ft 2 kts 233°
2026-05-09 01:00 12.18630 -68.95594 51 ft 2 kts 259°
2026-05-09 01:00 12.18630 -68.95581 51 ft 0 kts 282°
2026-05-09 01:00 12.18629 -68.95576 51 ft 0 kts 283°
2026-05-09 01:04 12.18632 -68.95591 51 ft 5 kts 282°
2026-05-09 01:04 12.18645 -68.95654 51 ft 12 kts 282°
2026-05-09 01:05 12.18667 -68.95759 51 ft 17 kts 282°
2026-05-09 01:05 12.18696 -68.95895 52 ft 21 kts 282°
2026-05-09 01:05 12.18769 -68.96249 52 ft 27 kts 282°
2026-05-09 01:06 12.18809 -68.96433 52 ft 26 kts 283°
2026-05-09 01:06 12.18848 -68.96609 52 ft 25 kts 282°
2026-05-09 01:06 12.18882 -68.96783 52 ft 24 kts 281°
2026-05-09 01:06 12.18919 -68.96954 51 ft 24 kts 282°
2026-05-09 01:07 12.18953 -68.97120 51 ft 23 kts 281°
2026-05-09 01:07 12.18987 -68.97285 50 ft 23 kts 282°
2026-05-09 01:07 12.19023 -68.97449 50 ft 23 kts 283°
2026-05-09 01:07 12.19057 -68.97608 50 ft 22 kts 288°
2026-05-09 01:08 12.19114 -68.97643 50 ft 9 kts 15°
2026-05-09 01:08 12.19187 -68.97602 50 ft 14 kts 60°
2026-05-09 01:08 12.19210 -68.97480 50 ft 22 kts 101°
2026-05-09 01:08 12.19144 -68.97162 50 ft 78 kts 102°
2026-05-09 01:09 12.18983 -68.96403 52 ft 136 kts 101°
2026-05-09 01:09 12.18764 -68.95373 362 ft 156 kts 101°
2026-05-09 01:09 12.18502 -68.94287 927 ft 163 kts 111°
2026-05-09 01:09 12.17643 -68.93508 1461 ft 185 kts 159°
2026-05-09 01:10 12.16298 -68.93642 1995 ft 211 kts 198°
2026-05-09 01:10 12.14958 -68.94411 2425 ft 230 kts 207°
2026-05-09 01:10 12.13557 -68.95355 2827 ft 249 kts 209°
2026-05-09 01:10 12.12061 -68.96388 3261 ft 268 kts 210°
2026-05-09 01:11 12.10467 -68.97497 3776 ft 283 kts 210°
2026-05-09 01:11 12.08842 -68.98629 4539 ft 287 kts 211°
2026-05-09 01:11 12.07204 -68.99779 5367 ft 288 kts 213°
2026-05-09 01:11 12.05819 -69.01276 6111 ft 295 kts 238°
2026-05-09 01:12 12.05099 -69.03211 6872 ft 297 kts 253°
2026-05-09 01:12 12.04555 -69.05241 7598 ft 299 kts 254°
2026-05-09 01:12 12.04015 -69.07303 8305 ft 303 kts 254°
2026-05-09 01:12 12.03469 -69.09379 8995 ft 306 kts 254°
2026-05-09 01:13 12.02914 -69.11482 9680 ft 309 kts 254°
2026-05-09 01:13 12.02351 -69.13592 10318 ft 313 kts 255°
2026-05-09 01:13 12.01765 -69.15786 10656 ft 328 kts 255°
2026-05-09 01:13 12.01150 -69.18079 10946 ft 345 kts 255°
2026-05-09 01:14 12.00501 -69.20502 11234 ft 362 kts 255°
2026-05-09 01:14 11.99816 -69.23052 11513 ft 378 kts 255°
2026-05-09 01:14 11.99104 -69.25703 11775 ft 394 kts 255°
2026-05-09 01:14 11.98373 -69.28417 12156 ft 405 kts 255°
2026-05-09 01:15 11.97624 -69.31199 12753 ft 409 kts 255°
2026-05-09 01:15 11.96863 -69.34020 13387 ft 413 kts 255°
2026-05-09 01:15 11.96105 -69.36841 13988 ft 416 kts 255°
2026-05-09 01:15 11.95335 -69.39705 14564 ft 420 kts 255°
2026-05-09 01:16 11.94566 -69.42564 15117 ft 424 kts 255°
2026-05-09 01:16 11.93779 -69.45484 15657 ft 428 kts 255°
2026-05-09 01:16 11.92979 -69.48448 16187 ft 432 kts 255°
2026-05-09 01:17 11.91379 -69.54371 17193 ft 441 kts 255°
2026-05-09 01:17 11.90559 -69.57406 17693 ft 445 kts 255°
2026-05-09 01:17 11.89732 -69.60462 18188 ft 449 kts 255°
2026-05-09 01:17 11.88891 -69.63565 18669 ft 453 kts 255°
2026-05-09 01:18 11.88051 -69.66668 19119 ft 458 kts 255°
2026-05-09 01:18 11.87196 -69.69830 19565 ft 463 kts 255°
2026-05-09 01:18 11.86345 -69.72970 20006 ft 466 kts 255°
2026-05-09 01:18 11.85482 -69.76157 20430 ft 471 kts 255°
2026-05-09 01:19 11.84598 -69.79417 20860 ft 474 kts 255°
2026-05-09 01:19 11.83720 -69.82652 21258 ft 478 kts 255°
2026-05-09 01:19 11.82834 -69.85918 21652 ft 482 kts 255°
2026-05-09 01:19 11.81928 -69.89253 22036 ft 486 kts 255°
2026-05-09 01:20 11.81026 -69.92573 22408 ft 490 kts 255°
2026-05-09 01:20 11.80114 -69.95931 22832 ft 493 kts 255°
2026-05-09 01:20 11.79199 -69.99297 23305 ft 494 kts 255°
2026-05-09 01:20 11.78286 -70.02651 23780 ft 494 kts 255°
2026-05-09 01:21 11.77363 -70.06042 24268 ft 495 kts 255°
2026-05-09 01:21 11.76443 -70.09421 24748 ft 496 kts 255°
2026-05-09 01:21 11.75523 -70.12794 25187 ft 497 kts 255°
2026-05-09 01:21 11.74591 -70.16212 25622 ft 498 kts 255°
2026-05-09 01:22 11.73677 -70.19565 26026 ft 499 kts 256°
2026-05-09 01:22 11.72734 -70.23019 26451 ft 501 kts 256°
2026-05-09 01:22 11.71805 -70.26424 26851 ft 502 kts 256°
2026-05-09 01:22 11.70879 -70.29813 27256 ft 503 kts 256°
2026-05-09 01:23 11.69930 -70.33287 27651 ft 504 kts 256°
2026-05-09 01:23 11.68998 -70.36696 28027 ft 505 kts 256°
2026-05-09 01:23 11.68055 -70.40144 28420 ft 506 kts 256°
2026-05-09 01:23 11.67106 -70.43607 28909 ft 504 kts 256°
2026-05-09 01:24 11.66182 -70.46983 29489 ft 500 kts 256°
2026-05-09 01:24 11.65250 -70.50388 30062 ft 496 kts 256°
2026-05-09 01:24 11.64327 -70.53755 30580 ft 493 kts 256°
2026-05-09 01:24 11.63408 -70.57110 31078 ft 491 kts 256°
2026-05-09 01:25 11.62496 -70.60435 31565 ft 489 kts 256°
2026-05-09 01:25 11.61579 -70.63775 32057 ft 487 kts 256°
2026-05-09 01:25 11.60674 -70.67071 32556 ft 484 kts 256°
2026-05-09 01:25 11.59767 -70.70375 33100 ft 481 kts 256°
2026-05-09 01:26 11.58876 -70.73621 33662 ft 479 kts 256°
2026-05-09 01:26 11.57978 -70.76886 34230 ft 476 kts 256°
2026-05-09 01:26 11.57089 -70.80118 34731 ft 474 kts 256°
2026-05-09 01:26 11.56195 -70.83368 35115 ft 475 kts 256°
2026-05-09 01:27 11.55310 -70.86584 35448 ft 476 kts 256°
2026-05-09 01:27 11.54421 -70.89812 35767 ft 476 kts 256°
2026-05-09 01:27 11.53520 -70.93080 35878 ft 479 kts 256°
2026-05-09 01:27 11.52621 -70.96340 35879 ft 479 kts 256°
2026-05-09 01:28 11.50820 -71.02863 35879 ft 480 kts 256°
2026-05-09 01:28 11.49016 -71.09392 35872 ft 480 kts 256°
2026-05-09 01:29 11.47208 -71.15932 35863 ft 480 kts 256°
2026-05-09 01:29 11.45404 -71.22452 35860 ft 479 kts 256°
2026-05-09 01:30 11.43606 -71.28945 35861 ft 478 kts 256°
2026-05-09 01:30 11.41788 -71.35503 35859 ft 479 kts 256°
2026-05-09 01:31 11.39979 -71.42019 35860 ft 479 kts 256°
2026-05-09 01:31 11.38171 -71.48533 35860 ft 479 kts 256°
2026-05-09 01:32 11.36357 -71.55064 35865 ft 479 kts 255°
2026-05-09 01:32 11.34543 -71.61566 35865 ft 478 kts 256°
2026-05-09 01:33 11.32728 -71.68071 35868 ft 478 kts 255°
2026-05-09 01:33 11.30911 -71.74586 35870 ft 478 kts 255°
2026-05-09 01:34 11.29102 -71.81065 35870 ft 477 kts 255°
2026-05-09 01:34 11.27288 -71.87564 35872 ft 478 kts 255°
2026-05-09 01:35 11.25470 -71.94066 35876 ft 478 kts 255°
2026-05-09 01:35 11.23648 -72.00580 35878 ft 478 kts 255°
2026-05-09 01:36 11.21839 -72.07037 35882 ft 478 kts 255°
2026-05-09 01:36 11.20020 -72.13532 35888 ft 478 kts 255°
2026-05-09 01:37 11.18200 -72.20020 35891 ft 478 kts 255°
2026-05-09 01:37 11.16379 -72.26504 35896 ft 477 kts 255°
2026-05-09 01:38 11.14559 -72.32983 35903 ft 476 kts 255°
2026-05-09 01:38 11.12736 -72.39462 35911 ft 477 kts 255°
2026-05-09 01:39 11.10909 -72.45952 35924 ft 477 kts 255°
2026-05-09 01:39 11.09087 -72.52419 35935 ft 477 kts 255°
2026-05-09 01:40 11.07267 -72.58871 35933 ft 476 kts 255°
2026-05-09 01:40 11.05438 -72.65357 35931 ft 476 kts 255°
2026-05-09 01:41 11.03614 -72.71812 35925 ft 476 kts 255°
2026-05-09 01:41 11.01784 -72.78280 35916 ft 476 kts 255°
2026-05-09 01:42 10.99962 -72.84718 35934 ft 476 kts 255°
2026-05-09 01:42 10.98131 -72.91183 35955 ft 476 kts 255°
2026-05-09 01:43 10.96304 -72.97626 35970 ft 475 kts 255°
2026-05-09 01:43 10.94471 -73.04086 35995 ft 475 kts 255°
2026-05-09 01:44 10.92641 -73.10530 36021 ft 474 kts 255°
2026-05-09 01:44 10.90817 -73.16951 36042 ft 474 kts 255°
2026-05-09 01:45 10.88984 -73.23397 36081 ft 475 kts 255°
2026-05-09 01:45 10.87154 -73.29822 36110 ft 475 kts 255°
2026-05-09 01:46 10.85323 -73.36247 35976 ft 476 kts 255°
2026-05-09 01:46 10.84403 -73.39474 35255 ft 479 kts 255°
2026-05-09 01:46 10.83474 -73.42725 34442 ft 480 kts 255°
2026-05-09 01:47 10.82542 -73.45985 33607 ft 481 kts 255°
2026-05-09 01:47 10.81608 -73.49252 32753 ft 483 kts 255°
2026-05-09 01:47 10.80670 -73.52536 31929 ft 486 kts 255°
2026-05-09 01:47 10.79739 -73.55800 31063 ft 490 kts 255°
2026-05-09 01:48 10.78784 -73.59141 30167 ft 494 kts 255°
2026-05-09 01:48 10.77831 -73.62476 29497 ft 493 kts 256°
2026-05-09 01:48 10.76878 -73.65806 28925 ft 490 kts 255°
2026-05-09 01:48 10.75932 -73.69112 28323 ft 488 kts 255°
2026-05-09 01:49 10.74987 -73.72418 27687 ft 487 kts 255°
2026-05-09 01:49 10.74042 -73.75723 27053 ft 486 kts 255°
2026-05-09 01:49 10.73098 -73.79022 26374 ft 486 kts 255°
2026-05-09 01:49 10.72158 -73.82304 25653 ft 486 kts 255°
2026-05-09 01:50 10.71219 -73.85580 24964 ft 486 kts 254°
2026-05-09 01:50 10.70276 -73.88866 24286 ft 486 kts 254°
2026-05-09 01:50 10.69326 -73.92172 23693 ft 483 kts 254°
2026-05-09 01:50 10.68397 -73.95403 23128 ft 480 kts 254°
2026-05-09 01:51 10.67462 -73.98659 22540 ft 478 kts 253°
2026-05-09 01:51 10.66529 -74.01904 21966 ft 475 kts 253°
2026-05-09 01:51 10.65606 -74.05109 21405 ft 473 kts 253°
2026-05-09 01:51 10.64693 -74.08280 20876 ft 469 kts 253°
2026-05-09 01:52 10.63777 -74.11460 20355 ft 465 kts 253°
2026-05-09 01:52 10.62871 -74.14603 19842 ft 461 kts 253°
2026-05-09 01:52 10.61977 -74.17703 19353 ft 457 kts 253°
2026-05-09 01:52 10.61083 -74.20805 18850 ft 454 kts 253°
2026-05-09 01:53 10.60206 -74.23847 18270 ft 452 kts 253°
2026-05-09 01:53 10.59329 -74.26889 17760 ft 449 kts 253°
2026-05-09 01:53 10.58450 -74.29932 17302 ft 443 kts 253°
2026-05-09 01:53 10.57588 -74.32920 16868 ft 439 kts 253°
2026-05-09 01:54 10.56740 -74.35855 16438 ft 435 kts 253°
2026-05-09 01:54 10.55893 -74.38789 15964 ft 432 kts 253°
2026-05-09 01:54 10.55047 -74.41717 15516 ft 429 kts 254°
2026-05-09 01:54 10.54212 -74.44601 15021 ft 427 kts 254°
2026-05-09 01:55 10.53384 -74.47464 14568 ft 423 kts 254°
2026-05-09 01:55 10.52552 -74.50342 14117 ft 420 kts 254°
2026-05-09 01:55 10.51741 -74.53142 13627 ft 418 kts 254°
2026-05-09 01:55 10.50917 -74.55986 13150 ft 417 kts 254°
2026-05-09 01:56 10.50100 -74.58813 12687 ft 414 kts 254°
2026-05-09 01:56 10.49291 -74.61609 12230 ft 411 kts 254°
2026-05-09 01:56 10.48495 -74.64358 11826 ft 407 kts 254°
2026-05-09 01:56 10.47699 -74.67107 11352 ft 405 kts 253°
2026-05-09 01:57 10.46903 -74.69850 10918 ft 401 kts 253°
2026-05-09 01:57 10.46123 -74.72542 10574 ft 395 kts 253°
2026-05-09 01:57 10.45356 -74.75187 10306 ft 387 kts 253°
2026-05-09 01:57 10.44612 -74.77753 10212 ft 374 kts 253°
2026-05-09 01:58 10.43891 -74.80237 10151 ft 360 kts 253°
2026-05-09 01:58 10.43198 -74.82622 10129 ft 346 kts 253°
2026-05-09 01:58 10.42521 -74.84952 10103 ft 334 kts 253°
2026-05-09 01:58 10.41880 -74.87154 10079 ft 323 kts 253°
2026-05-09 01:59 10.41253 -74.89310 10040 ft 312 kts 253°
2026-05-09 01:59 10.40637 -74.91429 9761 ft 311 kts 253°
2026-05-09 01:59 10.40027 -74.93527 9463 ft 311 kts 253°
2026-05-09 01:59 10.39419 -74.95613 9184 ft 310 kts 253°
2026-05-09 02:00 10.38809 -74.97710 8922 ft 308 kts 253°
2026-05-09 02:00 10.38200 -74.99803 8650 ft 308 kts 253°
2026-05-09 02:00 10.37597 -75.01871 8393 ft 306 kts 253°
2026-05-09 02:00 10.36992 -75.03944 8136 ft 304 kts 253°
2026-05-09 02:01 10.36391 -75.06011 7878 ft 302 kts 253°
2026-05-09 02:01 10.35802 -75.08034 7623 ft 301 kts 253°
2026-05-09 02:01 10.35206 -75.10081 7349 ft 300 kts 253°
2026-05-09 02:01 10.34620 -75.12091 7089 ft 299 kts 253°
2026-05-09 02:02 10.34033 -75.14103 6829 ft 297 kts 253°
2026-05-09 02:02 10.33443 -75.16127 6557 ft 296 kts 253°
2026-05-09 02:02 10.32863 -75.18115 6290 ft 295 kts 253°
2026-05-09 02:02 10.32278 -75.20117 6023 ft 294 kts 253°
2026-05-09 02:03 10.31699 -75.22096 5758 ft 294 kts 253°
2026-05-09 02:03 10.31113 -75.24097 5491 ft 293 kts 254°
2026-05-09 02:03 10.30535 -75.26076 5228 ft 292 kts 254°
2026-05-09 02:03 10.29961 -75.28039 4990 ft 289 kts 254°
2026-05-09 02:04 10.29388 -75.30000 4703 ft 290 kts 255°
2026-05-09 02:04 10.28815 -75.31960 4418 ft 289 kts 255°
2026-05-09 02:04 10.28241 -75.33923 4176 ft 288 kts 255°
2026-05-09 02:04 10.27682 -75.35841 4082 ft 280 kts 255°
2026-05-09 02:05 10.27135 -75.37714 4061 ft 270 kts 255°
2026-05-09 02:05 10.26610 -75.39508 4036 ft 260 kts 255°
2026-05-09 02:05 10.26113 -75.41238 4000 ft 250 kts 259°
2026-05-09 02:05 10.25928 -75.42937 3912 ft 242 kts 272°
2026-05-09 02:06 10.25979 -75.44636 3703 ft 240 kts 275°
2026-05-09 02:06 10.26069 -75.46335 3522 ft 238 kts 276°
2026-05-09 02:06 10.26154 -75.48006 3345 ft 237 kts 275°
2026-05-09 02:07 10.26443 -75.51274 2984 ft 230 kts 297°
2026-05-09 02:07 10.27497 -75.52439 2806 ft 223 kts 339°
2026-05-09 02:07 10.28955 -75.52593 2591 ft 208 kts 14°
2026-05-09 02:07 10.30308 -75.52198 2416 ft 197 kts 14°
2026-05-09 02:08 10.31617 -75.51920 2170 ft 183 kts
2026-05-09 02:08 10.32825 -75.51780 1962 ft 167 kts
2026-05-09 02:08 10.33965 -75.51706 1740 ft 157 kts
2026-05-09 02:08 10.35025 -75.51663 1538 ft 149 kts
2026-05-09 02:09 10.36055 -75.51624 1341 ft 143 kts
2026-05-09 02:09 10.37023 -75.51586 1159 ft 136 kts
2026-05-09 02:09 10.37958 -75.51547 989 ft 128 kts
2026-05-09 02:09 10.38865 -75.51515 826 ft 130 kts
2026-05-09 02:10 10.39779 -75.51472 660 ft 131 kts
2026-05-09 02:10 10.40706 -75.51430 503 ft 132 kts
2026-05-09 02:10 10.41640 -75.51393 319 ft 134 kts
2026-05-09 02:10 10.42590 -75.51352 152 ft 135 kts
2026-05-09 02:11 10.43548 -75.51318 30 ft 127 kts
2026-05-09 02:11 10.44260 -75.51289 31 ft 74 kts
2026-05-09 02:11 10.44600 -75.51283 31 ft 27 kts 356°
2026-05-09 02:11 10.44642 -75.51318 31 ft 7 kts 286°
2026-05-09 02:12 10.44639 -75.51366 31 ft 7 kts 255°
2026-05-09 02:12 10.44627 -75.51418 32 ft 8 kts 255°
2026-05-09 02:12 10.44612 -75.51479 32 ft 9 kts 260°
2026-05-09 02:12 10.44609 -75.51535 32 ft 1 kts 271°
2026-05-09 02:13 10.44609 -75.51537 32 ft 0 kts 271°